FREGAT R/B, 40352

Orbit data source: Space-Track

FREGAT R/B, 40352 is space debris originally from a launch on Thu, 18 Dec 2014 UTC launched from the French Guiana (FRGUI). Debris objects in space refer to the collection of defunct objects orbiting the Earth. Examples of debris include non-operational satellites, rocket bodies, and fragments generated from explosions, collisions, or faulty payload assembly.

Loading next visibility...
FREGAT R/B details
Identifier
40352, 2014-083E
Orbit
Active
Last TLE update1 day ago
Origin
Flag of CISLavochkin (CIS)
ManufacturerLavochkin
MissionSpacecraft
Bus & MotorFREGAT, Unknown motor
Mass1,050 kg wet, 1,050 kg dry
Launch date (UTC)
2014-12-18 (10 years ago)
Launch vehicleUnknown
Launch site
French Guiana (FRGUI)
Object type
Payload
Rocket body
Debris
Shape & HBRIrr, 3.3 m
Radar Cross Section11.055 m², Large (>1 m²)

Expand to show TLE details & history

TLE from 1 day ago
0 FREGAT R/B
1 40352U 14083E   24360.36572380 -.00000011  00000-0  00000-0 0  9992
2 40352   0.0734  83.3915 0007055 309.3331 327.3204  5.20672109190629
Epoch: 2024-12-25T08:46Z
Definitive object data (Epoch: 2024-12-25T08:46:38.536Z)
Latitude-0.07264°
Longitude133.97896°
Altitude7,673.277 km
Speed5.329 km/s
True Right ascension00h 00m 00s
True Declination0° 04' 21"
Sunlit
Object was in daylight at TLE epoch
Visualization TLE readout
Latitude0.01952°
Longitude18.07485°
Altitude7,690.135 km
Speed5.322 km/s
Apparent Right ascension17h 33m 19s
Apparent Declination-15° 17' 37"
Sunlit
Object is in daylight
Visualization observer readout
Local Sidereal Time10:17:44
Azimuth90.116° ESE
Elevation-24.133°
Doppler factor1
Orbital elements
Apogee altitude7,696.232 km
Perigee altitude7,676.387 km
Semi-major axis14,064.446 km
Eccentricity0.0007055
Inclination0.0734°
RAAN83.3915°
Arg. of periapsis309.3331°
True anomaly327.27672°
Mean anomaly327.3204°
Eccentric anomaly327.29856°
Mean motion1.30125 °/min
BSTARUnknown
Orbital period276.66 mins
Loading maneuver chart data...
Loading historical data...
Loading historical data...
Loading historical data...
Loading historical data...
Loading historical data...
Loading historical data...
Loading historical data...
Other satellites on launch #83 in the year 2014 (2014-12-18 UTC)

FREGAT R/B Visibility forecast

Observer location: undefined°, undefined

Span
Click to sort rows by Start time (UTC) header in descending order
Start Az.
Max El. time (UTC)
Max El. Az.
Max El.
End time (UTC)
End Az.
74 mins2024-12-26 14:36:28.086Z231.632° WSW2024-12-26 15:13:28.086Z180.135° SSW23.792°2024-12-26 15:50:28.086Z128.599° SE
72 mins2024-12-26 20:20:28.086Z229.982° WSW2024-12-26 20:55:28.086Z180.89° SSW23.675°2024-12-26 21:32:28.086Z129.048° SE
71 mins2024-12-27 02:03:28.086Z229.273° WSW2024-12-27 02:38:28.086Z179.772° S23.658°2024-12-27 03:14:28.086Z129.297° SE
72 mins2024-12-27 07:45:28.086Z229.631° WSW2024-12-27 08:20:28.086Z180.282° SSW23.77°2024-12-27 08:57:28.086Z128.59° SE
|